User: anonymous   Login
Location: Los Gatos B&B
(42.6926°N, 77.0646°W)
Time: 06:35:18
(UTC-04:00)
Language:

SL-16 R/B - Orbit

View from above orbital plane
View from above orbital plane
View from above satellite
View from above satellite

Ground track
Ground track

The orbit data is extracted from the following two-line orbital elements,

1 28353U 04021B   16268.05109437  .00000116  00000-0  85758-4 0  9995
2 28353  71.0001 276.5894 0007270 252.9229 107.1097 14.14188516634535
Epoch (UTC): 24 September 2016 01:13:34
Eccentricity: 0.0007270
inclination: 71.0001°
perigee height: 840 km
apogee height: 850 km
right ascension of ascending node: 276.5894°
argument of perigee: 252.9229°
revolutions per day: 14.14188516
mean anomaly at epoch: 107.1097°
orbit number at epoch: 63453

The dashed part of the orbit path shows where the satellite is in the earth's shadow,  

DLR